When you browse on this site, cookies collect data to enhance your experience and personalize the content and advertising you see.
Visit our Privacy Policy to learn more. By continuing to use the site, you agree to this use of cookies and data.
  • In Portugal
  • List of Countries
  • For 7 days
  • Water Temperature
  • Satellite Maps
  • Weather Map
  • Weather Widgets
  • user-avatar
    Login

    Hourly Weather Maun

    Today, 17 December, Monday

    Time Temperature Precipitation Wind Pressure Humidity
    00:00 +29°C° 0 mm 2 mps 681 mmHg 18%
    01:00 +29°C° 0 mm 3 mps 681 mmHg 19%
    02:00 +28°C° 0 mm 3 mps 681 mmHg 22%
    03:00 +27°C° 0 mm 3 mps 681 mmHg 26%
    04:00 +27°C° 0 mm 3 mps 681 mmHg 30%
    05:00 +26°C° 0 mm 3 mps 681 mmHg 34%
    06:00 +27°C° 0 mm 3 mps 682 mmHg 37%
    07:00 +29°C° 0 mm 3 mps 682 mmHg 39%
    08:00 +30°C° 0 mm 4 mps 683 mmHg 42%
    09:00 +33°C° 0 mm 4 mps 683 mmHg 37%
    10:00 +35°C° 0 mm 4 mps 683 mmHg 33%
    11:00 +37°C° 0 mm 3 mps 683 mmHg 28%
    12:00 +37°C° 0 mm 3 mps 682 mmHg 25%
    13:00 +38°C° 0 mm 3 mps 682 mmHg 22%
    14:00 +39°C° 0 mm 3 mps 681 mmHg 19%
    15:00 +39°C° 0 mm 3 mps 681 mmHg 18%
    16:00 +39°C° 0 mm 3 mps 680 mmHg 18%
    17:00 +39°C° 0 mm 3 mps 680 mmHg 18%
    18:00 +37°C° 0 mm 2 mps 680 mmHg 19%
    19:00 +36°C° 0 mm 2 mps 679 mmHg 21%
    20:00 +34°C° 0 mm 2 mps 679 mmHg 23%
    21:00 +32°C° 0 mm 1 mps 680 mmHg 24%
    22:00 +31°C° 0 mm 1 mps 680 mmHg 25%
    23:00 +30°C° 0 mm 1 mps 680 mmHg 26%

    Tomorrow, 18 December, Tuesday

    Time Temperature Precipitation Wind Pressure Humidity
    00:00 +30°C° 0 mm 1 mps 680 mmHg 29%
    01:00 +29°C° 0 mm 1 mps 680 mmHg 32%
    02:00 +28°C° 0 mm 1 mps 680 mmHg 34%
    03:00 +28°C° 0 mm 1 mps 680 mmHg 38%
    04:00 +27°C° 0 mm 2 mps 679 mmHg 41%
    05:00 +27°C° 0 mm 2 mps 679 mmHg 45%
    06:00 +28°C° 0 mm 2 mps 680 mmHg 44%
    07:00 +29°C° 0 mm 3 mps 681 mmHg 43%
    08:00 +31°C° 0 mm 3 mps 681 mmHg 42%
    09:00 +34°C° 0 mm 3 mps 682 mmHg 37%
    10:00 +36°C° 0 mm 3 mps 682 mmHg 31%
    11:00 +38°C° 0 mm 3 mps 682 mmHg 26%
    12:00 +39°C° 0 mm 3 mps 681 mmHg 22%
    13:00 +41°C° 0 mm 2 mps 681 mmHg 19%
    14:00 +42°C° 0 mm 2 mps 680 mmHg 15%
    15:00 +41°C° 0 mm 2 mps 680 mmHg 16%
    16:00 +40°C° 0 mm 2 mps 679 mmHg 17%
    17:00 +39°C° 0 mm 2 mps 678 mmHg 18%
    18:00 +38°C° 0 mm 2 mps 678 mmHg 20%
    19:00 +36°C° 0 mm 2 mps 678 mmHg 22%
    20:00 +35°C° 0 mm 2 mps 678 mmHg 24%
    21:00 +34°C° 0 mm 2 mps 679 mmHg 26%
    22:00 +32°C° 0 mm 1 mps 679 mmHg 27%
    23:00 +32°C° 0 mm 1 mps 679 mmHg 28%

    Day after tomorrow, 19 December, Wednesday

    Time Temperature Precipitation Wind Pressure Humidity
    00:00 +31°C° 0 mm 1 mps 679 mmHg 30%
    01:00 +30°C° 0 mm 1 mps 678 mmHg 32%
    02:00 +29°C° 0 mm 1 mps 677 mmHg 33%
    03:00 +29°C° 0 mm 1 mps 678 mmHg 34%
    04:00 +28°C° 0 mm 1 mps 678 mmHg 35%
    05:00 +28°C° 0 mm 1 mps 678 mmHg 36%
    06:00 +29°C° 0 mm 2 mps 678 mmHg 35%
    07:00 +31°C° 0 mm 2 mps 679 mmHg 33%
    08:00 +32°C° 0 mm 2 mps 680 mmHg 31%
    09:00 +36°C° 0 mm 2 mps 680 mmHg 27%
    10:00 +39°C° 0 mm 1 mps 680 mmHg 22%
    11:00 +42°C° 0 mm 1 mps 681 mmHg 18%
    12:00 +42°C° 0 mm 1 mps 680 mmHg 16%
    13:00 +43°C° 0 mm 1 mps 680 mmHg 15%
    14:00 +43°C° 0 mm 1 mps 679 mmHg 14%
    15:00 +42°C° 0 mm 1 mps 678 mmHg 14%
    16:00 +41°C° 0 mm 1 mps 678 mmHg 14%
    17:00 +41°C° 0 mm 1 mps 677 mmHg 14%
    18:00 +39°C° 0 mm 1 mps 677 mmHg 16%
    19:00 +37°C° 0 mm 1 mps 677 mmHg 17%
    20:00 +35°C° 0 mm 1 mps 677 mmHg 19%
    21:00 +35°C° 0 mm 1 mps 678 mmHg 20%
    22:00 +35°C° 0 mm 2 mps 678 mmHg 20%
    23:00 +35°C° 0 mm 2 mps 678 mmHg 21%

    20 December, Thursday

    Time Temperature Precipitation Wind Pressure Humidity
    00:00 +34°C° 0 mm 2 mps 678 mmHg 23%
    01:00 +32°C° 0 mm 1 mps 677 mmHg 24%
    02:00 +31°C° 0 mm 1 mps 677 mmHg 26%
    03:00 +31°C° 0 mm 2 mps 677 mmHg 27%
    04:00 +31°C° 0 mm 2 mps 677 mmHg 28%
    05:00 +30°C° 0 mm 2 mps 677 mmHg 29%
    06:00 +32°C° 0 mm 2 mps 678 mmHg 28%
    07:00 +34°C° 0 mm 3 mps 678 mmHg 27%
    08:00 +35°C° 0 mm 3 mps 679 mmHg 26%
    09:00 +37°C° 0 mm 3 mps 679 mmHg 23%
    10:00 +39°C° 0 mm 3 mps 680 mmHg 20%
    11:00 +41°C° 0 mm 2 mps 680 mmHg 18%
    12:00 +42°C° 0 mm 3 mps 679 mmHg 18%
    13:00 +42°C° 0 mm 3 mps 678 mmHg 18%
    14:00 +42°C° 0 mm 3 mps 678 mmHg 18%
    15:00 +42°C° 0 mm 3 mps 678 mmHg 18%
    16:00 +42°C° 0 mm 3 mps 678 mmHg 18%
    17:00 +41°C° 0 mm 2 mps 677 mmHg 18%
    18:00 +39°C° 0 mm 3 mps 678 mmHg 24%
    19:00 +36°C° 0 mm 4 mps 678 mmHg 29%
    20:00 +33°C° 0 mm 5 mps 678 mmHg 35%
    21:00 +33°C° 0.1 mm 5 mps 678 mmHg 36%
    22:00 +32°C° 0.1 mm 4 mps 679 mmHg 37%
    23:00 +31°C° 0.1 mm 3 mps 679 mmHg 39%

    21 December, Friday

    Time Temperature Precipitation Wind Pressure Humidity
    00:00 +30°C° 0.4 mm 2 mps 679 mmHg 42%
    01:00 +29°C° 0.4 mm 2 mps 678 mmHg 46%
    02:00 +28°C° 0.4 mm 1 mps 678 mmHg 50%
    03:00 +27°C° 0.4 mm 1 mps 678 mmHg 52%
    04:00 +27°C° 0.4 mm 2 mps 678 mmHg 55%
    05:00 +27°C° 0.4 mm 2 mps 678 mmHg 57%
    06:00 +28°C° 0.1 mm 2 mps 679 mmHg 54%
    07:00 +29°C° 0.1 mm 2 mps 680 mmHg 51%
    08:00 +30°C° 0.1 mm 3 mps 681 mmHg 48%
    09:00 +33°C° 0 mm 3 mps 681 mmHg 41%
    10:00 +36°C° 0 mm 3 mps 681 mmHg 35%
    11:00 +38°C° 0 mm 3 mps 681 mmHg 28%
    12:00 +38°C° 0 mm 3 mps 680 mmHg 27%
    13:00 +38°C° 0 mm 3 mps 680 mmHg 26%
    14:00 +39°C° 0 mm 3 mps 679 mmHg 24%
    15:00 +39°C° 0 mm 3 mps 679 mmHg 24%
    16:00 +38°C° 0 mm 3 mps 678 mmHg 24%
    17:00 +38°C° 0 mm 3 mps 678 mmHg 24%
    18:00 +37°C° 0 mm 3 mps 678 mmHg 26%
    19:00 +36°C° 0 mm 2 mps 678 mmHg 29%
    20:00 +35°C° 0 mm 2 mps 678 mmHg 31%
    21:00 +34°C° 0 mm 2 mps 678 mmHg 33%
    22:00 +33°C° 0 mm 3 mps 678 mmHg 36%
    23:00 +31°C° 0 mm 3 mps 678 mmHg 38%

    22 December, Saturday

    Time Temperature Precipitation Wind Pressure Humidity
    00:00 +30°C° 0 mm 2 mps 678 mmHg 42%
    01:00 +29°C° 0 mm 2 mps 678 mmHg 45%
    02:00 +28°C° 0 mm 2 mps 677 mmHg 48%
    03:00 +28°C° 0.1 mm 2 mps 678 mmHg 50%
    04:00 +28°C° 0.1 mm 2 mps 678 mmHg 53%
    05:00 +27°C° 0.1 mm 2 mps 678 mmHg 55%
    06:00 +28°C° 0.7 mm 2 mps 679 mmHg 55%
    07:00 +28°C° 0.7 mm 2 mps 680 mmHg 54%
    08:00 +29°C° 0.7 mm 2 mps 681 mmHg 54%
    09:00 +30°C° 0 mm 2 mps 681 mmHg 50%
    10:00 +32°C° 0 mm 2 mps 681 mmHg 45%
    11:00 +33°C° 0 mm 1 mps 681 mmHg 40%
    12:00 +35°C° 0 mm 1 mps 681 mmHg 37%
    13:00 +36°C° 0 mm 1 mps 680 mmHg 33%
    14:00 +37°C° 0 mm 1 mps 679 mmHg 30%
    15:00 +37°C° 0 mm 1 mps 679 mmHg 29%
    16:00 +37°C° 0 mm 2 mps 678 mmHg 28%
    17:00 +37°C° 0 mm 2 mps 678 mmHg 28%
    18:00 +36°C° 0 mm 2 mps 678 mmHg 30%
    19:00 +35°C° 0 mm 2 mps 678 mmHg 32%
    20:00 +33°C° 0 mm 1 mps 678 mmHg 34%
    21:00 +32°C° 0 mm 2 mps 678 mmHg 37%
    22:00 +31°C° 0 mm 2 mps 678 mmHg 40%
    23:00 +30°C° 0 mm 2 mps 678 mmHg 42%
    Show more